Regional Weather Roundup
Issued by NWS Charleston, WV

Home | Current Version | Previous Version | Text Only | Print | Product List | Glossary Off
Versions: 1 2 3 4 5 6 7 8 9 10 11 12 13 14 15 16 17 18 19 20 21 22 23 24 25 26 27 28 29 30 31 32 33 34 35 36 37 38 39 40 41 42 43 44 45 46 47 48 49 50

000
ASUS41 KRLX 172010
RWRRLX
West Virginia Regional Weather Roundup
National Weather Service Charleston WV
400 PM EDT FRI APR 17 2015

Note: "fair" indicates few or no clouds below 12,000 feet with no
significant weather and/or obstructions to visibility.

WVZ003-172100-
Northern Panhandle of West Virginia

CITY           SKY/WX    TMP DP  RH WIND       PRES   REMARKS
WHEELING       MOSUNNY   68  52  56 NW10      30.03F
$$

WVZ009-172100-
Northwest West Virginia

CITY           SKY/WX    TMP DP  RH WIND       PRES   REMARKS
PARKERSBURG    MOSUNNY   74  53  48 W7        30.04F
$$

WVZ006-172100-
Western West Virginia

CITY           SKY/WX    TMP DP  RH WIND       PRES   REMARKS
HUNTINGTON     MOSUNNY   74  59  59 CALM      30.02F
$$

WVZ015-172100-
West Central West Virginia

CITY           SKY/WX    TMP DP  RH WIND       PRES   REMARKS
CHARLESTON     PTSUNNY   75  56  51 SW7       30.03F
$$

WVZ022-031-172100-
North Central West Virginia

CITY           SKY/WX    TMP DP  RH WIND       PRES   REMARKS
CLARKSBURG     CLOUDY    64  59  83 S6        30.05F
MORGANTOWN     MOSUNNY   68  54  60 S7        30.04F
$$

WVZ025-035-042-045-172100-
Southern West Virginia

CITY           SKY/WX    TMP DP  RH WIND       PRES   REMARKS
BECKLEY        PTSUNNY   70  49  47 NW7       30.07F
LOGAN          PTSUNNY   72  55  56 VRB3      30.02F
BLUEFIELD      PTSUNNY   73  46  38 NW9       30.08F
LEWISBURG      PTSUNNY   75  50  41 W8        30.06F
$$

WVZ047-172100-
Northern Mountains of West Virginia

CITY           SKY/WX    TMP DP  RH WIND       PRES   REMARKS
ELKINS         LGT RAIN  62  57  83 W5        30.09F
$$

WVZ052-172100-
Eastern Panhandle of West Virginia

CITY           SKY/WX    TMP DP  RH WIND       PRES   REMARKS
MARTINSBURG    PTSUNNY   77  55  46 N12       29.97F
PETERSBURG     PTSUNNY   72  54  53 W9        30.01F
$$



USA.gov is the U.S. government's official web portal to all federal, state and local government web resources and services.